DW1824 Weather Reports


Display with metric or nautical units.
time (UTC)temp
F
wind
direction
speed
MPH
gust
MPH
rain 1hr
in
rain 24hr
in
rain mn
in
humidity
%
barometer
mb
20260503185352 77 130 2.0 7.0 0.00 0.00 0.00 46 1021.9
20260503184338 77 78 3.0 5.0 0.00 0.00 0.00 49 1021.9
20260503183342 77 196 1.0 7.0 0.00 0.00 0.00 44 1022.1
20260503182332 77 135 4.0 7.0 0.00 0.00 0.00 49 1022.2
20260503181359 77 142 2.0 8.0 0.00 0.00 0.00 46 1022.4
20260503180343 77 129 2.0 6.0 0.00 0.00 0.00 45 1022.5
20260503175330 76 132 1.0 8.0 0.00 0.00 0.00 47 1022.7
20260503174337 77 174 2.0 5.0 0.00 0.00 0.00 48 1022.9
20260503173341 76 201 1.0 6.0 0.00 0.00 0.00 48 1023.0
20260503172330 76 174 2.0 6.0 0.00 0.00 0.00 47 1023.2
20260503171339 76 177 1.0 4.0 0.00 0.00 0.00 48 1023.3
20260503170342 76 213 1.0 6.0 0.00 0.00 0.00 51 1023.4
20260503150335 72 148 0.0 4.0 0.00 0.00 0.00 58 1023.4
20260503131340 59 277 0.0 0.0 0.00 0.00 0.00 94 1022.7
20260503130327 58 327 0.0 0.0 0.00 0.00 0.00 94 1022.6
20260503110326 55 327 0.0 0.0 0.00 0.00 0.00 93 1022.0
20260503090334 57 327 0.0 1.0 0.00 0.00 0.00 93 1021.3
20260503081339 57 327 0.0 1.0 0.00 0.00 0.00 93 1021.4
20260503080324 57 325 0.0 2.0 0.00 0.00 0.00 93 1021.5
20260503072323 58 319 0.0 0.0 0.00 0.00 0.00 92 1021.6
20260503071330 58 319 0.0 0.0 0.00 0.00 0.00 92 1021.5
20260503070358 58 319 0.0 0.0 0.00 0.00 0.00 92 1021.6
20260503060326 59 319 0.0 0.0 0.00 0.00 0.00 91 1021.5
20260503054342 60 319 0.0 0.0 0.00 0.00 0.00 91 1021.6
20260503053329 59 319 0.0 0.0 0.00 0.00 0.00 91 1021.4
20260503052338 60 319 0.0 0.0 0.00 0.00 0.00 91 1021.5
20260503051326 60 319 0.0 0.0 0.00 0.00 0.00 91 1021.4
20260503050333 60 319 0.0 0.0 0.00 0.00 0.00 91 1021.3
20260503045341 60 319 0.0 0.0 0.00 0.00 0.00 91 1021.3
20260503044329 61 319 0.0 0.0 0.00 0.00 0.00 91 1021.3
20260503043337 61 319 0.0 0.0 0.00 0.00 0.00 90 1021.1
20260503042349 61 319 0.0 0.0 0.00 0.00 0.00 90 1021.2
20260503041333 61 319 0.0 0.0 0.00 0.00 0.00 90 1021.2
20260503040341 61 319 0.0 0.0 0.00 0.00 0.00 89 1021.0
20260503035329 61 319 0.0 0.0 0.00 0.00 0.00 89 1021.1
20260503034335 62 319 0.0 0.0 0.00 0.00 0.00 89 1021.2
20260503033341 62 319 0.0 0.0 0.00 0.00 0.00 89 1021.0
20260503032350 62 319 0.0 0.0 0.00 0.00 0.00 89 1020.8
20260503031336 62 319 0.0 0.0 0.00 0.00 0.00 88 1020.6
20260503030324 62 319 0.0 0.0 0.00 0.00 0.00 87 1020.6
20260503025332 63 319 0.0 0.0 0.00 0.00 0.00 86 1020.5
20260503024324 63 319 0.0 0.0 0.00 0.00 0.00 86 1020.4
20260503023331 63 319 0.0 0.0 0.00 0.00 0.00 85 1020.5
20260503022334 63 319 0.0 0.0 0.00 0.00 0.00 84 1020.4
20260503021401 64 319 0.0 0.0 0.00 0.00 0.00 83 1020.2
20260503020403 65 319 0.0 0.0 0.00 0.00 0.00 82 1020.1
20260503015328 66 319 0.0 0.0 0.00 0.04 0.00 80 1019.9
20260503014334 67 319 0.0 0.0 0.00 0.04 0.00 76 1019.9
20260503013358 68 319 0.0 0.0 0.00 0.04 0.00 74 1019.8
20260503012403 70 319 0.0 0.0 0.00 0.04 0.00 70 1019.8
20260503011326 71 319 0.0 0.0 0.00 0.04 0.00 64 1019.6
20260503010333 72 319 0.0 0.0 0.00 0.04 0.00 60 1019.4
20260503005357 73 319 0.0 0.0 0.00 0.18 0.00 59 1019.3
20260503004324 74 319 0.0 0.0 0.00 0.18 0.00 55 1019.3
20260503003328 76 318 0.0 2.0 0.00 0.18 0.00 53 1019.1
20260503002332 77 324 1.0 4.0 0.00 0.18 0.00 50 1019.1
20260503000336 79 340 1.0 8.0 0.00 0.18 0.00 47 1018.9
20260502235325 80 335 3.0 10.0 0.00 0.43 0.00 46 1018.9
20260502234327 79 350 2.0 11.0 0.00 0.43 0.00 48 1018.8
20260502233330 78 350 3.0 9.0 0.00 0.43 0.00 46 1018.8
20260502232335 77 306 3.0 10.0 0.00 0.43 0.00 49 1018.8
20260502231359 76 40 2.0 10.0 0.00 0.43 0.00 49 1018.9
20260502230337 76 340 3.0 10.0 0.00 0.43 0.00 52 1018.7
20260502225341 76 345 3.0 10.0 0.00 0.52 0.00 50 1018.7
20260502224325 76 334 5.0 13.0 0.00 0.52 0.00 49 1018.5
20260502223331 76 51 4.0 12.0 0.00 0.52 0.00 50 1018.2
20260502222336 76 15 4.0 12.0 0.00 0.52 0.00 49 1018.6
20260502221402 76 300 2.0 11.0 0.00 0.52 0.00 49 1018.7
20260502220347 76 31 2.0 12.0 0.00 0.52 0.00 52 1018.7
20260502215333 76 294 4.0 12.0 0.00 0.57 0.00 52 1018.9
20260502214336 76 305 6.0 15.0 0.00 0.57 0.00 50 1018.8
20260502213342 76 325 4.0 11.0 0.00 0.57 0.00 53 1019.1
20260502212345 76 340 5.0 12.0 0.00 0.57 0.00 53 1019.1
20260502211349 75 7 5.0 10.0 0.00 0.57 0.00 52 1019.2
20260502210355 75 340 5.0 13.0 0.00 0.57 0.00 53 1019.4
20260502205343 75 45 4.0 13.0 0.00 0.80 0.00 51 1019.4
20260502204331 75 25 6.0 14.0 0.00 0.80 0.00 51 1019.5
20260502203335 75 48 3.0 10.0 0.00 0.80 0.00 53 1019.7
20260502202340 75 340 6.0 13.0 0.00 0.80 0.00 52 1019.9
20260502201344 74 43 7.0 12.0 0.00 0.80 0.00 51 1019.9
20260502200348 74 331 4.0 11.0 0.00 0.80 0.00 53 1020.1
20260502195332 75 16 5.0 13.0 0.00 0.91 0.00 51 1020.3
20260502194334 75 340 5.0 12.0 0.00 0.91 0.00 52 1020.4
20260502193337 75 43 4.0 9.0 0.00 0.91 0.00 54 1020.4
20260502192402 75 354 3.0 10.0 0.00 0.91 0.00 52 1020.6
20260502191326 75 324 3.0 15.0 0.00 0.91 0.00 53 1020.6
20260502190329 75 327 5.0 12.0 0.00 0.91 0.00 51 1020.7